FW1217 Weather Reports


time (UTC)temp
C
wind
direction
speed
KPH
gust
KPH
rain 1hr
cm
rain 24hr
cm
rain mn
cm
humidity
%
barometer
mb
20260503050019 2 213 0.0 3.2 0.00 0.00 0.00 78 1020.0
20260503044543 2 213 0.0 0.0 0.00 0.00 0.00 78 1020.0
20260503043017 2 213 0.0 0.0 0.00 0.00 0.00 78 1020.0
20260503041515 2 213 0.0 0.0 0.00 0.00 0.00 79 1019.9
20260503040018 3 213 0.0 0.0 0.00 0.00 0.00 79 1019.9
20260503034515 3 213 0.0 0.0 0.00 0.00 0.00 78 1020.0
20260503033018 3 213 0.0 0.0 0.00 0.00 0.00 77 1020.0
20260503031515 3 213 0.0 0.0 0.00 0.00 0.00 76 1020.2
20260503030013 3 213 0.0 0.0 0.00 0.00 0.00 75 1020.3
20260503024514 3 213 0.0 0.0 0.00 0.00 0.00 73 1020.4
20260503023014 4 213 0.0 0.0 0.00 0.00 0.00 72 1020.4
20260503021518 5 213 0.0 0.0 0.00 0.00 0.00 71 1020.4
20260503020032 5 213 0.0 0.0 0.00 0.00 0.00 69 1020.2
20260503014514 5 213 0.0 0.0 0.00 0.00 0.00 68 1020.0
20260503013016 6 213 0.0 1.6 0.00 0.00 0.00 64 1019.9
20260503011514 6 213 0.0 3.2 0.00 0.00 0.00 61 1019.8
20260503010012 7 212 0.0 3.2 0.00 0.00 0.00 60 1019.7
20260503004513 7 212 1.6 6.4 0.00 0.00 0.00 58 1019.6
20260503003026 7 238 3.2 6.4 0.00 0.00 0.00 58 1019.6
20260503001516 7 219 3.2 6.4 0.00 0.00 0.00 57 1019.5
20260503000026 7 215 1.6 8.0 0.00 0.00 0.00 55 1019.4
20260502234512 7 211 1.6 11.3 0.00 0.00 0.00 56 1019.2
20260502233016 7 215 1.6 14.5 0.00 0.00 0.00 55 1019.1
20260502231514 8 213 3.2 12.9 0.00 0.00 0.00 54 1019.1
20260502230012 8 237 3.2 12.9 0.00 0.00 0.00 53 1019.1
20260502224512 8 254 3.2 8.0 0.00 0.00 0.00 54 1019.1
20260502223031 8 223 4.8 12.9 0.00 0.00 0.00 52 1019.0
20260502221512 8 265 3.2 14.5 0.00 0.00 0.00 52 1019.0
20260502220013 8 230 6.4 16.1 0.00 0.00 0.00 51 1018.9
20260502214509 8 214 6.4 14.5 0.00 0.00 0.00 52 1018.8
20260502213012 8 188 4.8 11.3 0.00 0.00 0.00 53 1018.7
20260502211510 8 227 4.8 16.1 0.00 0.00 0.00 52 1018.7
20260502210011 9 261 3.2 17.7 0.00 0.00 0.00 50 1018.5
20260502204510 10 218 3.2 14.5 0.00 0.00 0.00 52 1018.5
20260502203008 9 236 4.8 12.9 0.00 0.00 0.00 52 1018.6
20260502201512 9 255 6.4 14.5 0.00 0.00 0.00 51 1018.7
20260502200013 9 167 8.0 16.1 0.00 0.00 0.00 51 1018.8
20260502194512 10 236 6.4 16.1 0.00 0.00 0.00 50 1018.8
20260502193012 11 254 8.0 19.3 0.00 0.00 0.00 52 1018.9
20260502191509 10 256 4.8 14.5 0.00 0.00 0.00 53 1019.1
20260502190018 10 243 9.7 16.1 0.00 0.00 0.00 48 1019.2
20260502184511 10 251 6.4 17.7 0.00 0.00 0.00 51 1019.2
20260502183006 9 253 8.0 16.1 0.00 0.00 0.00 52 1019.3
20260502181509 8 254 3.2 17.7 0.00 0.00 0.00 51 1019.3
20260502163014 7 269 8.0 14.5 0.00 0.03 0.00 55 1020.0
20260502161518 8 233 4.8 12.9 0.00 0.03 0.00 55 1020.1
20260502151526 8 306 4.8 17.7 0.00 0.18 0.00 60 1020.0
20260502123032 3 252 4.8 11.3 0.00 0.20 0.00 76 1019.2
20260502121525 3 266 1.6 9.7 0.00 0.20 0.00 78 1019.0
20260502114521 2 239 3.2 8.0 0.00 0.20 0.00 81 1018.9
20260502113026 1 272 0.0 6.4 0.00 0.20 0.00 83 1018.8
20260502111517 1 248 1.6 4.8 0.00 0.20 0.00 83 1018.7
20260502110022 1 257 0.0 3.2 0.00 0.20 0.00 84 1018.7
20260502104519 1 257 0.0 1.6 0.00 0.20 0.00 84 1018.8
20260502103020 1 257 0.0 1.6 0.00 0.20 0.00 84 1018.8
20260502101518 1 257 0.0 3.2 0.00 0.20 0.00 85 1018.6
20260502091522 2 257 0.0 0.0 0.00 0.20 0.00 84 1018.6
20260502071519 3 259 0.0 0.0 0.00 0.20 0.00 88 1018.4
20260502070021 2 259 0.0 0.0 0.00 0.20 0.00 88 1018.7
20260502064516 2 259 0.0 0.0 0.00 0.20 0.00 89 1018.9
20260502063019 2 259 0.0 0.0 0.00 0.20 0.00 89 1018.9
20260502061519 2 259 0.0 0.0 0.00 0.20 0.00 88 1018.7
20260502060019 2 259 0.0 0.0 0.00 0.20 0.00 89 1018.9
20260502054515 2 259 0.0 0.0 0.00 0.20 0.00 89 1018.9
20260502053014 2 259 0.0 0.0 0.00 0.20 0.00 89 1019.0
20260502051524 3 259 0.0 0.0 0.00 0.20 0.00 89 1019.0